Tracking 29892 objects as of 21-Nov-2024
HD Live streaming from Space Station
objects crossing your sky now

STARLINK-2219

Track STARLINK-2219 now!
10-day predictions
STARLINK-2219 is classified as:


NORAD ID: 48569
Int'l Code: 2021-041S
Perigee: 553.3 km
Apogee: 555.3 km
Inclination: 53.1 °
Period: 95.6 minutes
Semi major axis: 6925 km
RCS: Unknown
Launch date: May 15, 2021
Source: United States (US)
Launch site: AIR FORCE EASTERN TEST RANGE (AFETR)
Your satellite tracking list
Your tracking list is empty




NASA's NSSDC Master Catalog

Two Line Element Set (TLE):
1 48569U 21041S   24325.78115446  .00005527  00000-0  38941-3 0  9999
2 48569  53.0532  99.0768 0001454  96.8665 263.2489 15.06420619193770
Source of the keplerian elements: AFSPC